Preview of NWS' New Version of Forecast
This preview is not operational and should not be used for support decisions.

Regional Weather Roundup (RWR)

Issued by National Weather Service (NWS)

                            
000
ASUS42 KTBW 221617
RWRFL 
FLORIDA REGIONAL WEATHER ROUNDUP
NATIONAL WEATHER SERVICE TAMPA BAY RUSKIN FL
1200 PM EDT MON APR 22 2019

NOTE: "FAIR" INDICATES FEW OR NO CLOUDS BELOW 12,000 FEET WITH NO
SIGNIFICANT WEATHER AND/OR OBSTRUCTIONS TO VISIBILITY.

FLZ001>010-012>015-112-114-115-221700-
PANHANDLE FLORIDA
  
CITY           SKY/WX    TMP DP  RH WIND       PRES   REMARKS
PENSACOLA      FAIR      76  39  26 VRB6      30.21S                  
PENSACOLA NAS  FAIR      74  45  35 VRB3      30.21S                  
MILTON NAS     FAIR      75  45  34 CALM      30.21F                  
CRESTVIEW      FAIR      78  42  27 E5        30.22F                  
DUKE FIELD     FAIR      75  42  30 CALM      30.20F                  
VALPARAISO     FAIR      75  42  29 CALM      30.20S                  
MARY ESTHER    MOSUNNY   74  53  48 S7        30.19F                  
PANAMA CITY    FAIR      77  43  29 VRB5      30.19F                  
TYNDALL AFB    FAIR      75  42  30 NE6       30.20S                  
APALACHICOLA   FAIR      77  44  30 CALM      30.20F                  

STATION/POSITION SKY/WX   TEMP    WIND        PRES    WAVE   SWELL
                          AIR SEA DIR/SP/G            HT/PER HT/PER
                          (F)     (DEG/KT/KT) (MB)    (FT/S) (FT/S)
30.1N   87.6W                                 1023.5S   1
29.2N   88.2W                     100/ 10/ 12 1023.2S   1/ 3
PANAMA CITY BEAC           73 69   40/  4/  6 1023.2S
TOWER C          NOT AVBL

$$
FLZ011-016>038-118-127-128-134-139-239-221700-
NORTH FLORIDA
  
CITY           SKY/WX    TMP DP  RH WIND       PRES   REMARKS
MARIANNA       FAIR      76  47  35 VRB3      30.20F                  
TALLAHASSEE    FAIR      76  48  37 E6        30.20F                  
PERRY          FAIR      77  45  31 NE6       30.21F                  
LIVE OAK       SUNNY     75  41  29 NW3       30.20F                  
CROSS CITY     FAIR      78  38  23 E7        30.20F                  
LAKE CITY      FAIR      73  39  29 N6        30.20F                  
GAINESVILLE    FAIR      80  40  23 VRB5      30.23S                  
PALATKA        FAIR     N/A N/A N/A NW7       30.20F                  
MAYPORT NAS    FAIR      73  48  41 E7        30.20S                  
JACKSONVILLE   FAIR      78  39  24 CALM      30.19S                  
JAX NAS        FAIR      77  39  25 N6        30.21R                  
JAX CECIL      SUNNY     81  45  28 N5        30.20S                  
FERNANDINA BEA FAIR      73  48  40 SE7       30.20S                  
ST AUGUSTINE   FAIR      74  44  34 NE7       30.21S                  
PALM COAST     SUNNY     75  39  27 E3        30.20S                  

STATION/POSITION SKY/WX   TEMP    WIND        PRES    WAVE   SWELL
                          AIR SEA DIR/SP/G            HT/PER HT/PER
                          (F)     (DEG/KT/KT) (MB)    (FT/S) (FT/S)
SHELL POINT      NOT AVBL
KEATON BEACH               68     260/  7/  8 1022.9F
CEDAR KEY                  70     220/  3/  5 1022.9F
FERNANDINA                 76 67  290/  2/  3 1023.4R
30.7N   81.3W                 68                N/A     2/ 8
MAYPORT                    69 69   60/  7/  7 1022.9R
31.4N   80.9W              67 68   90/  4/  6 1022.9R   2/ 9   2/ 9
ST AUGUSTINE               70 73   20/  6/  6 1023.0S

$$
FLZ040-043>046-052-053-057-058-063-144-221700-
INTERIOR CENTRAL FLORIDA
  
CITY           SKY/WX    TMP DP  RH WIND       PRES   REMARKS
OCALA          FAIR      76  39  26 NE7       30.21S HAZE             
LEESBURG       FAIR      75  48  38 S6        30.21S                  
SANFORD        FAIR      77  41  27 N5        30.19F                  
ORLANDO EXEC   FAIR      77  41  27 VRB5      30.19F                  
ORLANDO INTL   FAIR      77  40  26 VRB5      30.19F                  
KISSIMMEE      FAIR      76  42  29 NE7       30.20F                  
WINTER HAVEN   FAIR      77  42  28 NE7       30.21S                  
LAKELAND       SUNNY     73  50  43 CALM      30.21S                  
BARTOW         SUNNY     75  45  33 NE6       30.20S                  
SEBRING        FAIR      75  46  34 CALM      30.19F                  
OKEECHOBEE     FAIR      75  50  41 E5        30.18F                  

$$
FLZ041-047-054-059-064-141-147-221700-
EAST CENTRAL FLORIDA
  
CITY           SKY/WX    TMP DP  RH WIND       PRES   REMARKS
ORMOND BEACH   SUNNY     75  41  29 E6        30.20S                  
DAYTONA BEACH  FAIR      77  46  33 NE9       30.20S                  
DELAND         FAIR      75  41  29 NE7       30.19F                  
NEW SMYRNA BEA SUNNY     73  48  40 NE7       30.21S                  
JFK SPACE CTR  FAIR      76  46  33 NE7       30.18F                  
TITUSVILLE     SUNNY     79  39  24 NE6       30.20S                  
CAPE CANAVERAL FAIR      76  44  31 N6        30.18S                  
PATRICK AFB    FAIR      77  48  36 NW7       30.18F                  
MELBOURNE      FAIR      78  46  32 N6        30.18F                  
VERO BEACH     FAIR      77  53  43 E9        30.18F                  
FT PIERCE      FAIR      78  53  41 VRB7      30.18F                  
STUART         MOSUNNY   75  55  50 N8        30.19F                  

STATION/POSITION SKY/WX   TEMP    WIND        PRES    WAVE   SWELL
                          AIR SEA DIR/SP/G            HT/PER HT/PER
                          (F)     (DEG/KT/KT) (MB)    (FT/S) (FT/S)
28.5N   80.2W              71     340/  8/ 10 1022.7F   3/ 8   3/ 8
28.9N   78.5W              73 78  360/  8/ 12 1022.3F   3/ 9   3/ 9
TRIDENT PIER               74 75  290/  5/  8 1023.6F
28.4N   80.5W                 76                N/A     2/ 9
27.5N   80.2W                 74                N/A     3/ 9   2/13

$$
FLZ050-056-061-142-242-148-248-149-249-151-251-155-255-
160-260-221700-
WEST CENTRAL FLORIDA
  
CITY           SKY/WX    TMP DP  RH WIND       PRES   REMARKS
CRYSTAL RIVER  FAIR      77  37  24 E3        30.20F                  
INVERNESS      FAIR      77  43  29 NE7       30.21F                  
BROOKSVILLE    FAIR      77  45  32 VRB3      30.21S                  
CLEARWATER AIR FAIR      73  43  33 SE8       30.20F                  
ST PETE CLEARW FAIR      73  49  42 NE6       30.20S                  
TAMPA INTL     FAIR      76  44  32 VRB3      30.20F                  
PLANT CITY     FAIR      75  45  33 E8        30.22S                  
MACDILL AFB    FAIR      75  44  32 E7        30.19F                  
PETER O KNIGHT CLOUDY    77  48  36 NE5       30.20F                  
ST PETERSBURG  FAIR      70  52  52 E12       30.18F                  
SARASOTA       FAIR      77  47  34 E9        30.17F                  
VENICE         FAIR      79  52  38 NE8       30.19S                  

STATION/POSITION SKY/WX   TEMP    WIND        PRES    WAVE   SWELL
                          AIR SEA DIR/SP/G            HT/PER HT/PER
                          (F)     (DEG/KT/KT) (MB)    (FT/S) (FT/S)
27.3N   84.2W                 74                N/A     2/ 4
CLEARWATER BEACH                   20/  5/  8 1022.6F
MIDDLE TAMPA BAY           70      40/  9/ 10 1022.6F
VENICE                     74 75   90/  8/ 12 1021.8F

$$
FLZ066-069-070-075>078-162-262-165-265-221700-
SOUTHWEST FLORIDA AND KEYS
  
CITY           SKY/WX    TMP DP  RH WIND       PRES   REMARKS
PUNTA GORDA    FAIR      77  49  37 SE5       30.19F                  
FT MYERS       FAIR      77  52  41 NE7       30.16F                  
SOUTHWEST INTL FAIR      78  52  40 E13G20    30.17S                  
NAPLES         FAIR      79  60  52 E8        30.15F                  
MARCO ISLAND   FAIR      78  57  48 E7        30.17F                  
IMMOKALEE      FAIR      81  55  41 VRB6      30.15F                  
MARATHON       FAIR      84  58  40 SE8       30.14S                  
KEY WEST NAS   FAIR      79  57  46 NE5       30.14S                  
KEY WEST INTL  FAIR      79  60  52 E8        30.15S                  

STATION/POSITION SKY/WX   TEMP    WIND        PRES    WAVE   SWELL
                          AIR SEA DIR/SP/G            HT/PER HT/PER
                          (F)     (DEG/KT/KT) (MB)    (FT/S) (FT/S)
NAPLES                     77 75   80/  3/  7 1021.2F
DRY TORTUGAS               74      70/  6/  8 1021.0F
SAND KEY                   74                 1020.8R
SOMBRERO KEY               75                 1020.0F

$$
FLZ067-068-071>074-168-172>174-221700-
SOUTHEAST FLORIDA 
  
CITY           SKY/WX    TMP DP  RH WIND       PRES   REMARKS
W PALM BEACH   FAIR      76  55  48 E12       30.17F                  
BOCA RATON     PTSUNNY   81  55  41 NE12      30.17S                  
FT LAUDER-EXEC FAIR      78  54  43 E10       30.16S                  
FT LAUDERDALE  PTSUNNY   78  56  46 NE10      30.16S                  
POMPANO BEACH  FAIR      79  53  40 NE13      30.17S                  
PEMBROKE PINES FAIR      80  55  42 E14       30.18S                  
OPA LOCKA      FAIR      78  55  44 VRB3G21   30.17S                  
MIAMI          PTSUNNY   76  56  49 NE12      30.16S                  
WEST KENDALL   FAIR      80  57  45 E12G22    30.15F                  
HOMESTEAD      MOSUNNY   78  57  49 NE13G18   30.15S                  

STATION/POSITION SKY/WX   TEMP    WIND        PRES    WAVE   SWELL
                          AIR SEA DIR/SP/G            HT/PER HT/PER
                          (F)     (DEG/KT/KT) (MB)    (FT/S) (FT/S)
VIRGINIA KEY               74 79   50/  7/ 10 1020.9R
LAKE WORTH                 73 77   60/  9/ 12 1022.7F
SETTLEMENT POINT           72      50/ 11/ 13 1021.9F

$$